| time (UTC) | temp C | wind direction | speed KPH | gust KPH | rain 1hr cm | rain 24hr cm | rain mn cm | humidity % | barometer mb |
| 20260504100533 | 4 | 0 | 0.0 | 0.0 | 0.00 | 0.00 | 0.00 | 89 | 1017.7 |
| 20260504081544 | 4 | 0 | 0.0 | 0.0 | 0.00 | 0.00 | 0.00 | 87 | 1017.8 |
| 20260504081033 | 4 | 0 | 0.0 | 0.0 | 0.00 | 0.00 | 0.00 | 87 | 1017.6 |
| 20260504080535 | 4 | 0 | 0.0 | 0.0 | 0.00 | 0.00 | 0.00 | 87 | 1017.6 |
| 20260504050534 | 5 | 0 | 0.0 | 0.0 | 0.00 | 0.00 | 0.00 | 80 | 1018.4 |
| 20260504045532 | 6 | 0 | 0.0 | 0.0 | 0.00 | 0.00 | 0.00 | 80 | 1018.4 |
| 20260504045032 | 6 | 0 | 0.0 | 0.0 | 0.00 | 0.00 | 0.00 | 79 | 1018.4 |
| 20260504044552 | 6 | 0 | 0.0 | 0.0 | 0.00 | 0.00 | 0.00 | 79 | 1018.4 |
| 20260504044033 | 6 | 0 | 0.0 | 0.0 | 0.00 | 0.00 | 0.00 | 78 | 1018.5 |
| 20260504043533 | 6 | 0 | 0.0 | 0.0 | 0.00 | 0.00 | 0.00 | 78 | 1018.4 |
| 20260504043046 | 6 | 0 | 0.0 | 0.0 | 0.00 | 0.00 | 0.00 | 77 | 1018.3 |
| 20260504042533 | 6 | 0 | 0.0 | 0.0 | 0.00 | 0.00 | 0.00 | 78 | 1018.2 |
| 20260504042034 | 6 | 0 | 0.0 | 0.0 | 0.00 | 0.00 | 0.00 | 78 | 1018.4 |
| 20260504041551 | 6 | 0 | 0.0 | 0.0 | 0.00 | 0.00 | 0.00 | 77 | 1018.3 |
| 20260504041033 | 6 | 0 | 0.0 | 0.0 | 0.00 | 0.00 | 0.00 | 77 | 1018.3 |
| 20260504040533 | 6 | 0 | 0.0 | 0.0 | 0.00 | 0.00 | 0.00 | 76 | 1018.3 |
| 20260504040048 | 6 | 0 | 0.0 | 3.2 | 0.00 | 0.00 | 0.00 | 76 | 1018.2 |
| 20260504035533 | 6 | 0 | 0.0 | 3.2 | 0.00 | 0.00 | 0.00 | 76 | 1018.1 |
| 20260504035032 | 6 | 311 | 0.0 | 3.2 | 0.00 | 0.00 | 0.00 | 75 | 1018.0 |
| 20260504034544 | 6 | 0 | 0.0 | 1.6 | 0.00 | 0.00 | 0.00 | 75 | 1018.1 |
| 20260504034035 | 6 | 0 | 0.0 | 3.2 | 0.00 | 0.00 | 0.00 | 74 | 1017.9 |
| 20260504033534 | 6 | 311 | 0.0 | 3.2 | 0.00 | 0.00 | 0.00 | 74 | 1018.0 |
| 20260504033053 | 6 | 311 | 0.0 | 3.2 | 0.00 | 0.00 | 0.00 | 74 | 1017.9 |
| 20260504032533 | 7 | 0 | 1.6 | 3.2 | 0.00 | 0.00 | 0.00 | 74 | 1017.9 |
| 20260504032034 | 7 | 0 | 0.0 | 3.2 | 0.00 | 0.00 | 0.00 | 72 | 1018.0 |
| 20260504031548 | 7 | 0 | 0.0 | 3.2 | 0.00 | 0.00 | 0.00 | 73 | 1017.9 |
| 20260504031034 | 7 | 311 | 0.0 | 3.2 | 0.00 | 0.00 | 0.00 | 74 | 1017.9 |
| 20260504030532 | 7 | 311 | 0.0 | 3.2 | 0.00 | 0.00 | 0.00 | 74 | 1017.8 |
| 20260504030049 | 7 | 311 | 0.0 | 3.2 | 0.00 | 0.00 | 0.00 | 74 | 1017.9 |
| 20260504025533 | 7 | 0 | 0.0 | 4.8 | 0.00 | 0.00 | 0.00 | 73 | 1018.0 |
| 20260504025034 | 7 | 0 | 0.0 | 4.8 | 0.00 | 0.00 | 0.00 | 73 | 1017.9 |
| 20260504024556 | 7 | 0 | 1.6 | 3.2 | 0.00 | 0.00 | 0.00 | 73 | 1018.0 |
| 20260504024033 | 7 | 0 | 0.0 | 3.2 | 0.00 | 0.00 | 0.00 | 72 | 1018.1 |
| 20260504023533 | 7 | 0 | 1.6 | 3.2 | 0.00 | 0.00 | 0.00 | 73 | 1018.0 |
| 20260504023044 | 7 | 0 | 0.0 | 1.6 | 0.00 | 0.00 | 0.00 | 72 | 1018.0 |
| 20260504022534 | 7 | 310 | 0.0 | 3.2 | 0.00 | 0.00 | 0.00 | 72 | 1018.0 |
| 20260504022033 | 8 | 0 | 0.0 | 3.2 | 0.00 | 0.00 | 0.00 | 70 | 1017.9 |
| 20260504021552 | 8 | 310 | 0.0 | 3.2 | 0.00 | 0.00 | 0.00 | 71 | 1017.8 |
| 20260504021032 | 8 | 310 | 0.0 | 3.2 | 0.00 | 0.00 | 0.00 | 71 | 1017.8 |
| 20260504020532 | 8 | 0 | 0.0 | 1.6 | 0.00 | 0.00 | 0.00 | 70 | 1017.6 |
| 20260504020049 | 8 | 0 | 0.0 | 3.2 | 0.00 | 0.00 | 0.00 | 70 | 1017.5 |
| 20260504015533 | 8 | 310 | 0.0 | 3.2 | 0.00 | 0.00 | 0.00 | 70 | 1017.5 |
| 20260504015032 | 8 | 310 | 0.0 | 3.2 | 0.00 | 0.00 | 0.00 | 69 | 1017.5 |
| 20260504014545 | 8 | 0 | 0.0 | 0.0 | 0.00 | 0.00 | 0.00 | 68 | 1017.5 |
| 20260504014034 | 8 | 0 | 0.0 | 0.0 | 0.00 | 0.00 | 0.00 | 69 | 1017.5 |
| 20260504013534 | 8 | 0 | 0.0 | 1.6 | 0.00 | 0.00 | 0.00 | 68 | 1017.5 |
| 20260504013049 | 8 | 0 | 0.0 | 1.6 | 0.00 | 0.00 | 0.00 | 68 | 1017.5 |
| 20260504012533 | 9 | 0 | 0.0 | 3.2 | 0.00 | 0.00 | 0.00 | 66 | 1017.4 |
| 20260504012032 | 9 | 0 | 0.0 | 3.2 | 0.00 | 0.00 | 0.00 | 65 | 1017.5 |
| 20260504011547 | 10 | 309 | 0.0 | 4.8 | 0.00 | 0.00 | 0.00 | 64 | 1017.4 |
| 20260504011032 | 10 | 309 | 1.6 | 4.8 | 0.00 | 0.00 | 0.00 | 63 | 1017.4 |
| 20260504010532 | 10 | 270 | 0.0 | 3.2 | 0.00 | 0.00 | 0.00 | 64 | 1017.3 |
| 20260504010046 | 10 | 0 | 0.0 | 0.0 | 0.00 | 0.00 | 0.00 | 62 | 1017.3 |
| 20260504005533 | 10 | 0 | 0.0 | 0.0 | 0.00 | 0.00 | 0.00 | 61 | 1017.2 |
| 20260504005034 | 11 | 0 | 0.0 | 0.0 | 0.00 | 0.00 | 0.00 | 61 | 1017.2 |
| 20260504004559 | 11 | 0 | 0.0 | 0.0 | 0.00 | 0.00 | 0.00 | 59 | 1017.2 |
| 20260504004033 | 11 | 0 | 0.0 | 0.0 | 0.00 | 0.00 | 0.00 | 57 | 1017.0 |
| 20260504003533 | 11 | 0 | 0.0 | 0.0 | 0.00 | 0.00 | 0.00 | 56 | 1017.0 |
| 20260504003044 | 11 | 0 | 0.0 | 0.0 | 0.00 | 0.00 | 0.00 | 56 | 1017.0 |
| 20260504002532 | 12 | 0 | 0.0 | 0.0 | 0.00 | 0.00 | 0.00 | 55 | 1016.9 |
| 20260504002035 | 12 | 0 | 0.0 | 0.0 | 0.00 | 0.00 | 0.00 | 53 | 1016.9 |
| 20260504001547 | 12 | 0 | 0.0 | 0.0 | 0.00 | 0.00 | 0.00 | 54 | 1016.7 |
| 20260504001032 | 12 | 0 | 0.0 | 0.0 | 0.00 | 0.00 | 0.00 | 54 | 1017.0 |
| 20260504000533 | 13 | 0 | 0.0 | 1.6 | 0.00 | 0.00 | 0.00 | 50 | 1016.9 |
| 20260504000045 | 13 | 0 | 0.0 | 1.6 | 0.00 | 0.00 | 0.00 | 47 | 1016.8 |
| 20260503235534 | 13 | 0 | 0.0 | 1.6 | 0.00 | 0.00 | 0.00 | 50 | 1016.8 |
| 20260503235033 | 14 | 0 | 0.0 | 4.8 | 0.00 | 0.00 | 0.00 | 45 | 1016.8 |
| 20260503234546 | 14 | 261 | 0.0 | 4.8 | 0.00 | 0.00 | 0.00 | 42 | 1016.8 |
| 20260503234033 | 15 | 0 | 0.0 | 6.4 | 0.00 | 0.00 | 0.00 | 39 | 1016.8 |
| 20260503233536 | 15 | 254 | 3.2 | 14.5 | 0.00 | 0.00 | 0.00 | 38 | 1016.7 |
| 20260503233045 | 15 | 240 | 3.2 | 14.5 | 0.00 | 0.00 | 0.00 | 37 | 1016.6 |
| 20260503232534 | 15 | 263 | 4.8 | 14.5 | 0.00 | 0.00 | 0.00 | 36 | 1016.7 |
| 20260503232032 | 15 | 261 | 4.8 | 12.9 | 0.00 | 0.00 | 0.00 | 36 | 1016.6 |
| 20260503231555 | 15 | 264 | 4.8 | 12.9 | 0.00 | 0.00 | 0.00 | 35 | 1016.6 |
| 20260503231033 | 16 | 254 | 4.8 | 12.9 | 0.00 | 0.00 | 0.00 | 36 | 1016.7 |
| 20260503230533 | 16 | 266 | 1.6 | 12.9 | 0.00 | 0.00 | 0.00 | 37 | 1016.6 |
| 20260503230045 | 16 | 254 | 4.8 | 14.5 | 0.00 | 0.00 | 0.00 | 36 | 1016.7 |
| 20260503225532 | 16 | 267 | 4.8 | 14.5 | 0.00 | 0.00 | 0.00 | 35 | 1016.7 |
| 20260503225033 | 16 | 251 | 3.2 | 11.3 | 0.00 | 0.00 | 0.00 | 35 | 1016.6 |
| 20260503224542 | 16 | 263 | 3.2 | 16.1 | 0.00 | 0.00 | 0.00 | 33 | 1016.7 |
| 20260503224033 | 16 | 255 | 4.8 | 16.1 | 0.00 | 0.00 | 0.00 | 32 | 1016.7 |
| 20260503223533 | 16 | 250 | 3.2 | 19.3 | 0.00 | 0.00 | 0.00 | 33 | 1016.6 |
| 20260503223041 | 16 | 261 | 3.2 | 19.3 | 0.00 | 0.00 | 0.00 | 31 | 1016.6 |
| 20260503222532 | 17 | 252 | 6.4 | 19.3 | 0.00 | 0.00 | 0.00 | 30 | 1016.7 |
| 20260503222034 | 17 | 257 | 3.2 | 14.5 | 0.00 | 0.00 | 0.00 | 31 | 1016.6 |
| 20260503221552 | 17 | 238 | 4.8 | 14.5 | 0.00 | 0.00 | 0.00 | 33 | 1016.6 |
| 20260503221034 | 17 | 260 | 3.2 | 14.5 | 0.00 | 0.00 | 0.00 | 33 | 1016.7 |
| 20260503220533 | 17 | 258 | 4.8 | 14.5 | 0.00 | 0.00 | 0.00 | 33 | 1016.7 |
| 20260503220046 | 17 | 256 | 3.2 | 14.5 | 0.00 | 0.00 | 0.00 | 34 | 1016.7 |
| 20260503215534 | 17 | 261 | 3.2 | 14.5 | 0.00 | 0.00 | 0.00 | 32 | 1016.9 |
| 20260503215032 | 17 | 257 | 3.2 | 14.5 | 0.00 | 0.00 | 0.00 | 30 | 1016.8 |
| 20260503214545 | 17 | 251 | 4.8 | 14.5 | 0.00 | 0.00 | 0.00 | 31 | 1016.8 |
| 20260503214032 | 17 | 260 | 6.4 | 14.5 | 0.00 | 0.00 | 0.00 | 30 | 1016.8 |
| 20260503213532 | 17 | 0 | 3.2 | 20.9 | 0.00 | 0.00 | 0.00 | 29 | 1016.8 |
| 20260503213053 | 17 | 246 | 4.8 | 20.9 | 0.00 | 0.00 | 0.00 | 28 | 1016.9 |
| 20260503212535 | 17 | 242 | 6.4 | 17.7 | 0.00 | 0.00 | 0.00 | 30 | 1016.8 |
| 20260503212033 | 17 | 261 | 6.4 | 17.7 | 0.00 | 0.00 | 0.00 | 29 | 1017.0 |
| 20260503211602 | 17 | 279 | 4.8 | 16.1 | 0.00 | 0.00 | 0.00 | 28 | 1017.0 |
| 20260503211033 | 17 | 265 | 4.8 | 16.1 | 0.00 | 0.00 | 0.00 | 28 | 1017.0 |
| 20260503210533 | 17 | 257 | 4.8 | 16.1 | 0.00 | 0.00 | 0.00 | 29 | 1017.0 |
| 20260503210047 | 17 | 247 | 3.2 | 16.1 | 0.00 | 0.00 | 0.00 | 28 | 1017.1 |
| 20260503205533 | 17 | 259 | 4.8 | 17.7 | 0.00 | 0.00 | 0.00 | 25 | 1017.1 |
| 20260503205033 | 17 | 268 | 3.2 | 17.7 | 0.00 | 0.00 | 0.00 | 26 | 1017.2 |
| 20260503204547 | 17 | 247 | 4.8 | 24.1 | 0.00 | 0.00 | 0.00 | 27 | 1017.2 |
| 20260503204032 | 17 | 248 | 6.4 | 24.1 | 0.00 | 0.00 | 0.00 | 27 | 1017.3 |
| 20260503203536 | 17 | 267 | 6.4 | 20.9 | 0.00 | 0.00 | 0.00 | 25 | 1017.3 |
| 20260503203045 | 17 | 263 | 6.4 | 20.9 | 0.00 | 0.00 | 0.00 | 25 | 1017.3 |
| 20260503202532 | 17 | 246 | 8.0 | 20.9 | 0.00 | 0.00 | 0.00 | 25 | 1017.3 |
| 20260503202037 | 17 | 251 | 4.8 | 22.5 | 0.00 | 0.00 | 0.00 | 27 | 1017.4 |
| 20260503201541 | 17 | 251 | 8.0 | 22.5 | 0.00 | 0.00 | 0.00 | 28 | 1017.5 |
| 20260503201034 | 17 | 248 | 3.2 | 17.7 | 0.00 | 0.00 | 0.00 | 28 | 1017.4 |
| 20260503200534 | 17 | 251 | 6.4 | 19.3 | 0.00 | 0.00 | 0.00 | 29 | 1017.5 |
| 20260503200041 | 17 | 272 | 9.7 | 19.3 | 0.00 | 0.00 | 0.00 | 28 | 1017.5 |
| 20260503195533 | 17 | 271 | 8.0 | 17.7 | 0.00 | 0.00 | 0.00 | 29 | 1017.6 |
| 20260503195031 | 17 | 252 | 6.4 | 17.7 | 0.00 | 0.00 | 0.00 | 29 | 1017.8 |
| 20260503194549 | 17 | 270 | 3.2 | 14.5 | 0.00 | 0.00 | 0.00 | 32 | 1017.9 |
| 20260503194033 | 17 | 267 | 4.8 | 17.7 | 0.00 | 0.00 | 0.00 | 32 | 1018.1 |
| 20260503193533 | 17 | 252 | 4.8 | 17.7 | 0.00 | 0.00 | 0.00 | 32 | 1018.2 |
| 20260503193051 | 17 | 276 | 3.2 | 17.7 | 0.00 | 0.00 | 0.00 | 36 | 1018.2 |
| 20260503192533 | 17 | 263 | 8.0 | 17.7 | 0.00 | 0.00 | 0.00 | 34 | 1018.2 |
| 20260503192032 | 17 | 246 | 8.0 | 16.1 | 0.00 | 0.00 | 0.00 | 34 | 1018.3 |
| 20260503191545 | 17 | 251 | 3.2 | 16.1 | 0.00 | 0.00 | 0.00 | 38 | 1018.3 |
| 20260503191033 | 17 | 251 | 4.8 | 16.1 | 0.00 | 0.00 | 0.00 | 37 | 1018.3 |
| 20260503190532 | 17 | 246 | 4.8 | 14.5 | 0.00 | 0.00 | 0.00 | 38 | 1018.5 |
| 20260503190050 | 16 | 263 | 1.6 | 16.1 | 0.00 | 0.00 | 0.00 | 38 | 1018.5 |
| 20260503185535 | 16 | 269 | 4.8 | 16.1 | 0.00 | 0.00 | 0.00 | 38 | 1018.6 |
| 20260503185038 | 16 | 251 | 8.0 | 16.1 | 0.00 | 0.00 | 0.00 | 41 | 1018.6 |
| 20260503184601 | 17 | 152 | 1.6 | 9.7 | 0.00 | 0.00 | 0.00 | 38 | 1018.6 |
| 20260503184036 | 16 | 252 | 1.6 | 19.3 | 0.00 | 0.00 | 0.00 | 40 | 1018.7 |
| 20260503183535 | 16 | 246 | 6.4 | 20.9 | 0.00 | 0.00 | 0.00 | 43 | 1018.7 |
| 20260503183047 | 16 | 263 | 4.8 | 20.9 | 0.00 | 0.00 | 0.00 | 43 | 1018.7 |
| 20260503182543 | 16 | 277 | 3.2 | 19.3 | 0.00 | 0.00 | 0.00 | 43 | 1018.6 |
| 20260503182039 | 16 | 259 | 4.8 | 17.7 | 0.00 | 0.00 | 0.00 | 45 | 1018.8 |
| 20260503181552 | 16 | 247 | 1.6 | 11.3 | 0.00 | 0.00 | 0.00 | 48 | 1018.9 |
| 20260503181036 | 16 | 262 | 0.0 | 14.5 | 0.00 | 0.00 | 0.00 | 46 | 1018.9 |
| 20260503180536 | 16 | 257 | 6.4 | 14.5 | 0.00 | 0.00 | 0.00 | 47 | 1018.8 |
| 20260503180045 | 16 | 259 | 1.6 | 11.3 | 0.00 | 0.00 | 0.00 | 48 | 1018.9 |
| 20260503175536 | 16 | 334 | 0.0 | 16.1 | 0.00 | 0.00 | 0.00 | 51 | 1018.9 |
| 20260503175035 | 15 | 279 | 8.0 | 16.1 | 0.00 | 0.00 | 0.00 | 46 | 1019.0 |
| 20260503174604 | 16 | 259 | 3.2 | 14.5 | 0.00 | 0.00 | 0.00 | 47 | 1018.9 |
| 20260503174034 | 16 | 248 | 0.0 | 11.3 | 0.00 | 0.00 | 0.00 | 48 | 1018.9 |
| 20260503173535 | 16 | 0 | 3.2 | 11.3 | 0.00 | 0.00 | 0.00 | 52 | 1019.1 |
| 20260503173048 | 15 | 175 | 1.6 | 14.5 | 0.00 | 0.00 | 0.00 | 49 | 1019.3 |
| 20260503172536 | 15 | 144 | 4.8 | 14.5 | 0.00 | 0.00 | 0.00 | 48 | 1019.4 |
| 20260503172035 | 15 | 244 | 1.6 | 12.9 | 0.00 | 0.00 | 0.00 | 48 | 1019.4 |
| 20260503171546 | 15 | 240 | 3.2 | 12.9 | 0.00 | 0.00 | 0.00 | 49 | 1019.4 |
| 20260503171036 | 15 | 283 | 1.6 | 12.9 | 0.00 | 0.00 | 0.00 | 52 | 1019.5 |
| 20260503170536 | 15 | 267 | 1.6 | 12.9 | 0.00 | 0.00 | 0.00 | 50 | 1019.5 |
| 20260503150534 | 11 | 242 | 1.6 | 6.4 | 0.00 | 0.00 | 0.00 | 57 | 1020.3 |
| 20260503131034 | 6 | 0 | 0.0 | 4.8 | 0.00 | 0.00 | 0.00 | 80 | 1020.3 |
| 20260503130534 | 6 | 0 | 0.0 | 3.2 | 0.00 | 0.00 | 0.00 | 81 | 1020.2 |
| 20260503110535 | 2 | 63 | 0.0 | 1.6 | 0.00 | 0.00 | 0.00 | 89 | 1018.8 |